Terug naar catalogus

SJ-11-01

ActiefWetenschapSSO
NORAD 36088·PAYLOAD·🇨🇳 China

Gelanceerd Nov 12, 2009 vanaf Jiuquan Satellite Launch Center

Loading…

Volgende Passages (komende 24 uur)

TLE

VersSource: Space-Track

Epoch: Sep 14, 2026, 14:54 UTC

1 36088U 09061A   26257.62104969  .00000111  00000-0  30214-4 0  9997
2 36088  98.0157 236.1196 0012205  98.4345  36.6271 14.63757565897578

Volg SJ-11-01 in realtime met AllMySat

Download on the App Store